Terminal Aerodrome Forecast
Issued by NWS Knoxville/Tri Cities, TN

Home | Current Version | Previous Version | Text Only | Print | Product List | Glossary On
Versions: 1 2 3 4 5 6 7 8 9 10 11 12 13 14 15 16 17 18 19 20 21 22 23 24 25 26 27 28 29 30 31 32 33 34 35 36 37 38
190
FTUS44 KMRX 301120
TAFCHA
TAF
KCHA 301120Z 3012/3112 20004KT P6SM SCT008 BKN035
      TEMPO 3012/3014 4SM BR BKN025
     FM301400 23005KT P6SM BKN035
     FM301800 27006KT P6SM VCTS SCT040CB SCT250
     FM310000 00000KT P6SM BKN250=

USA.gov is the U.S. government's official web portal to all federal, state and local government web resources and services.